Regional Weather Roundup
Issued by NWS Wakefield, VA

Home | Current Version | Previous Version | Text Only | Print | Product List | Glossary Off
Versions: 1 2 3 4 5 6 7 8 9 10 11 12 13 14 15 16 17 18 19 20 21 22 23 24 25 26 27

000
ASUS41 KAKQ 252216
RWRAKQ

REGIONAL WEATHER ROUNDUP
NATIONAL WEATHER SERVICE WAKEFIELD VA
600 PM EDT WED APR 25 2018

Note: "fair" indicates few or no clouds below 12,000 feet with no
significant weather and/or obstructions to visibility. * = Denotes
station may not report precipitation (e.g., rain,snow,etc.),
thunder or fog.

VAZ042-051-052>054-056-252300-
NORTHERN VIRGINIA

CITY           SKY/WX    TMP DP  RH WIND       PRES   REMARKS
WASH NATIONAL  CLOUDY    65  56  72 NW12      29.70R
DULLES         PTSUNNY   61  59  93 N6        29.70S
FORT BELVOIR   LGT RAIN  63  56  79 NW10      29.69R
QUANTICO       CLOUDY    63  59  87 NE6       29.70S
FREDERICKSBRG* PTSUNNY   63  58  83 CALM      29.69F
STAFFORD*      CLOUDY    63  61  94 N3        29.74S
WARRENTON      CLOUDY    64  58  80 E5        29.70S
CULPEPER*      CLOUDY    64  58  83 CALM      29.71R
MANASSAS*      CLOUDY    62  58  86 N5        29.70F
LEESBURG*      CLOUDY    59  59 100 N3        29.71S
WINCHESTER     CLOUDY    63  52  67 NW8       29.73S
FRONT ROYAL*   CLOUDY    64  54  68 NW3       29.71R
LURAY*         CLOUDY    64  52  63 CALM      29.73R
$$

VAZ048-049-060>072-079>083-252300-
CENTRAL AND SOUTH CENTRAL VIRGINIA

CITY           SKY/WX    TMP DP  RH WIND       PRES   REMARKS
RICHMOND       CLOUDY    63  61  93 NW8       29.69R
CHESTERFIELD*  LGT RAIN  64  59  82 N8        29.70R
PETERSBURG*    CLOUDY    66  59  78 W5        29.70S
HANOVER        CLOUDY    63  59  87 NW7       29.71R
TAPPAHANNOCK*  CLOUDY    65  61  85 NW3       29.69R
QUINTON*       CLOUDY    62  62  99 W3        29.69R
CHARLOTTSVILLE CLOUDY    68  54  60 N3        29.71R
GORDONSVILLE*  CLOUDY    66  59  79 CALM      29.70R
ORANGE*        CLOUDY    64  55  72 CALM      29.70S
LOUISA*        CLOUDY    64  57  80 E3        29.74S
BUMPASS*       NOT AVBL
FARMVILLE*     PTSUNNY  N/A N/A N/A CALM      29.69S
CREWE*         MOCLDY    67  64  90 CALM      29.70S
FORT PICKETT*  CLOUDY    66  60  81 W3        29.70S
CHASE CITY*    MOCLDY    65  60  84 W6        29.72R
CLARKSVILLE*   FAIR      64  61  88 W3        29.72S
SOUTH HILL*    FAIR      65  61  86 W3        29.76F
LAWRENCEVILLE* MOCLDY    66  59  77 NW5       29.70R
EMPORIA*       PTSUNNY   64  61  88 SW5       29.71S
$$

VAZ088>098-252300-
SOUTHEAST VIRGINIA

CITY           SKY/WX    TMP DP  RH WIND       PRES   REMARKS
NORFOLK        FAIR      63  61  93 NE3       29.67S
VIRGINIA BEACH CLOUDY    62  61  96 CALM      29.66F
NORFOLK NAVAL  PTSUNNY   63  58  83 VRB3      29.69R
WEST POINT*    CLOUDY    65  61  87 W6        29.69F
SALUDA*        CLOUDY    64  64  99 CALM      29.67S
NEWPORT NEWS   CLOUDY    65  59  81 NW6       29.68S
LANGLEY AFB    CLOUDY    64  63  96 NW3       29.68S
FORT EUSTIS    DRIZZLE   63  60  89 NW3       29.66R
WILLIAMSBURG*  FAIR      64  63  94 NW8       29.69S
HR EXEC AP*    LGT RAIN  64  62  93 VRB5      29.70R
FRANKLIN*      PTSUNNY   64  61  91 W5        29.70R
US460-WAKEFLD  PTSUNNY   67  61  81 VRB3      29.69R
$$

VAZ020-022-025-037-045-252300-
WEST CENTRAL AND SOUTHWEST VIRGINIA

CITY           SKY/WX    TMP DP  RH WIND       PRES   REMARKS
STAUNTON*      CLOUDY    65  51  58 NW7       29.76R
WAYNESBORO*    CLOUDY    65  53  65 NW7       29.74R
HOT SPRINGS VA CLOUDY    54  48  82 NW8G23    29.82R
LYNCHBURG      CLOUDY    66  55  67 W6        29.75R
DANVILLE       CLOUDY    67  56  67 NW10      29.75R
SOUTH BOSTON*  FAIR      68  55  62 NW6       29.73S
MARTINSVILLE   FAIR      65  50  59 NW12G20   29.80R
ROANOKE        PTSUNNY   65  50  58 NW16G25   29.79R
BLACKSBURG     PTSUNNY   61  50  67 NW8       29.85R
DUBLIN*        CLOUDY    62  53  72 W12       29.84S
MARION*        CLOUDY    59  49  70 W14       29.88R
HILLSVILLE*    CLOUDY    59  49  68 NW15      29.83R
RICHLANDS*     CLOUDY    55  31  39 NW8       29.89S
WISE*          RAIN      54  54 100 NW5       29.93R
ABINGDON*      DRIZZLE   59  51  76 N7        29.89R
$$

MDZ021>025-VAZ099-100-252300-
SOUTHERN MARYLAND AND THE DELMARVA PENINSULA

CITY           SKY/WX    TMP DP  RH WIND       PRES   REMARKS
PATUXENT RIVER RAIN      61  60  97 NW8       29.67S VSB 1/2
BAY BRIDGE APT CLOUDY    61  59  94 CALM      29.67S
LEONARDTOWN    CLOUDY    59  59 100 CALM      29.69S
DOVER          CLOUDY    61  59  93 N5        29.64S
GEORGETOWN     CLOUDY    67  60  78 NE5       29.64R
EASTON         PTSUNNY   66  59  77 NW10      29.69S
CAMBRIDGE      PTSUNNY   64  59  82 NW10      29.65S
SALISBURY      CLOUDY    68  59  73 W14       29.64R
TANGIER        CLOUDY    61  59  94 NW8       29.66F
OCEAN CITY     PTSUNNY   62  59  90 S8        29.65S
WALLOPS ISLAND PTSUNNY   65  60  84 S10       29.66S
ACCOMACK*      CLOUDY    65  59  79 W7        29.67R
$$

NCZ012>017-030>032-252300-
NORTH CENTRAL AND EASTERN NORTH CAROLINA

CITY           SKY/WX    TMP DP  RH WIND       PRES   REMARKS
ROANOKE RAPIDS FAIR      64  61  88 W7        29.71R
RALEIGH        FAIR      68  58  70 NW5       29.74S
ELIZABETH CITY FAIR      67  62  84 SE5       29.67S
AHOSKIE*       PTSUNNY   65  62  89 CALM      29.70R
EDENTON*       FAIR      73  60  63 NW9       29.68S
CURRITUCK*     NOT AVBL
KILL DEVIL HLS FAIR      62  60  93 CALM      29.68S
MANTEO         LGT RAIN  64  61  89 CALM      29.69S
CAPE HATTERAS  FAIR      70  61  73 SW17G25   29.70R
TARBORO*       NOT AVBL
GOLDSBORO      PTSUNNY   70  59  68 W15       29.70R
WASHINGTON     CLOUDY    71  58  64 W5        29.69R
GREENVILLE     FAIR      72  57  60 W12       29.73R
NEW BERN       FAIR      70  56  61 W13G21    29.70R
WILMINGTON     FAIR      74  55  51 W16G28    29.72S
$$

VAZ048-252300-
ELSEWHERE

CITY           SKY/WX    TMP DP  RH WIND       PRES   REMARKS
HARRISBURG PA  CLOUDY    60  55  83 NW10      29.69S
BALTIMORE      CLOUDY    65  59  81 NW7       29.67R
ANNAPOLIS      CLOUDY    65  60  84 NW3       29.66S
ANDREWS AFB    CLOUDY    63  57  80 NW9       29.68R
PHILADELPHIA   CLOUDY    67  59  75 NW10G22   29.65F
HENDERSON NC   FAIR      62  55  75 NW3       29.74R
GREENSBORO     PTSUNNY   69  53  56 NW9       29.76R
ROCKY MOUNT    CLOUDY    67  58  72 NW10      29.72R
$$

VAZ100-252300-
MARINE

STATION/POSITION TIME  TEMP    WIND        PRES    WAVE   SWELL
                       AIR SEA DIR/SP/G            HT/PER HT/PER
                 (UTC) (F)     (DEG/KT/KT) (MB)    (FT/S) (FT/S)
BRANDYWINE LGT   2142   53     110/  7/  7 1004.1F
CAPE MAY NJ      2148   56 54  120/  5/  6 1003.6S
LEWES DE         2148   52 53   CALM  /  2 1003.7R
15NM E FENWICK I 2150   46 48  170/ 10/ 12 1004.1F   8/11   7/11
OCEAN-CITY-INLET 2148   54 52  220/ 10/ 11 1004.4S
WACHAPREAGUE VA  2148   61 59  200/  6/  7 1004.6R
THOMAS POINT MD  2200   60 54  250/  4/  4 1005.7R
GOOSES REEF MD   2200   58     340/  4/  6 1005.2
COVE POINT MD    2148   59     340/  7/  9 1005.4R
SOLOMONS ISLAND  2148   59 53  330/  3/  6 1004.5R
BISHOPS HEAD MD  2148   61 62  280/  9/ 12 1005.0R
PINEY POINT MD   2142          330/ 13/ 13   N/A
POTOMAC MD       2200   58 54  320/ 12/ 14 1006.0    1
CAMBRIDGE MD     2148   64 56              1005.0F
LEWISETTA VA     2148   62 56  330/  8/ 15 1004.7R
RAPPAHANNOCK LGT 2148          260/  5/  5 1005.4R
YORK RVR RNG VA  2148   61      10/  1/  2 1005.3F
YORKTOWN VA      2148   62 57  320/  7/  8 1004.6F
DOMINION TERM VA 2148   62     310/  7/  8 1005.1F
KIPTOPEKE VA     2148      57  180/  4/  5   N/A
CAPE HENRY VA    2148   60      CALM  /  1   N/A
WILLOUBY STN VA  2148   60     160/  1/  1 1004.9F
S CRANEY ISL VA  2148   64     340/  7/ 11 1004.6F
CAPE HENRY BUOY  2200      56                N/A     5/11   2/11
1ST LANDING BUOY 2150   58     140/  2/  4 1005.7R
64NM E OF VA BCH 2150   56 52  210/ 12/ 14 1005.2R   9/10   8/10
DUCK PIER NC     2148   61 52  150/  6/  9 1004.5R
44100 DUCK FRF   2145      54                N/A     7/11   3/11
44056 DUCK FRF   2200      53                N/A     6/10   3/11
OREGON INLET NC  2142   64 61  190/ 13/ 15 1004.9R
HATTERAS NC      2148   68 66  220/ 12/ 19 1005.3R
DIAMOND SHLS NC  2200   70 69  230/ 19/ 25 1005.9
CAPE LOOKOUT NC  2200          230/ 13/ 18 1006.2S
$$




USA.gov is the U.S. government's official web portal to all federal, state and local government web resources and services.